{"data":{"norad_id":48029,"intl_designator":"2021-024BE","name":"STARLINK-2299","alt_names":[],"object_type":"PAYLOAD","status":"ACTIVE","operator":null,"country":"US","launch_date":"2021-03-24","launch_site_code":"AFETR","launch_vehicle":null,"mission":null,"orbit_class":"UNKNOWN","rcs_meters":null,"size_class":null,"mass_kg":null,"dimensions":null,"purposes":["comms"],"wikipedia_slug":null,"has_3d_model":false,"image_url":null,"decayed_at":null,"tle_current":{"epoch":"2026-05-25T03:54:34.333632Z","epoch_age_seconds":61075,"freshness":"FRESH","line1":"1 48029U 21024BE  26145.16289738  .00085302  00000+0  13282-2 0  9999","line2":"2 48029  53.1173 330.1355 0003137 259.6556 100.4101 15.53186525286427","mean_motion":15.53186525,"eccentricity":0.0003137,"inclination_deg":53.1173,"raan_deg":330.1355,"arg_perigee_deg":259.6556,"mean_anomaly_deg":100.4101,"bstar":0.0013282,"rev_number":28642,"period_min":92.712625098264,"perigee_km":405.3006737096,"apogee_km":409.55793800989,"semimajor_km":6785.5663058597,"source":"CELESTRAK","updated_at":"2026-05-25T13:38:16.640622Z"}}}